Location: Boiro
(42.6475°N, 8.8834°W)
Time: 07:24:55
(UTC+01:00)

SR - Pass Details

Date: 03 December 2021
Orbit: 583 x 872 km, 66.7° (Epoch: 16 January)

Event Time Altitude Azimuth Distance (km) Brightness Sun altitude
Rises 10:02:32 0° 328° (NNW) 2,825 ? 10.1°
Reaches altitude 10° 10:04:43 10° 329° (NNW) 1,937 ? 10.4°
Maximum altitude 10:09:03 87° 242° (WSW) 623 ? 11.0°
Drops below altitude 10° 10:13:38 10° 152° (SSE) 2,042 ? 11.6°
Sets 10:16:00 0° 152° (SSE) 2,993 ? 11.9°
